• Processing (Info)

  • MPEC 2008-J77 : 2000 AD205

    The following Minor Planet Electronic Circular may be linked-to from your own Web pages, but must not otherwise be redistributed electronically.

    A form allowing access to any MPEC is at the bottom of this page.


    Read MPEC 2008-J76 Read MPEC 2008-J78


    M.P.E.C. 2008-J77                                Issued 2008 May 15, 18:36 UT
    
         The Minor Planet Electronic Circulars contain information on unusual
             minor planets and routine data on comets.  They are published
       on behalf of Commission 20 of the International Astronomical Union by the
              Minor Planet Center, Smithsonian Astrophysical Observatory,
                              Cambridge, MA 02138, U.S.A.
    
                 Prepared using the Tamkin Foundation Computer Network
    
                                  MPC@CFA.HARVARD.EDU
              URL http://www.cfa.harvard.edu/iau/mpc.html  ISSN 1523-6714
    
                                      2000 AD205
    
                               Revision to MPEC 2000-B02
    
    Additional Observations:
         K00AK5D  C2008 05 14.33887 17 02 15.00 +03 47 51.1          18.4 V EJ077703
         K00AK5D  C2008 05 14.34539 17 02 14.82 +03 48 03.9          18.1 V EJ077703
         K00AK5D  C2008 05 14.35191 17 02 14.67 +03 48 17.8          18.2 V EJ077703
         K00AK5D  C2008 05 14.35843 17 02 14.53 +03 48 31.3          18.3 V EJ077703
         K00AK5D  C2008 05 15.35939 17 01 55.45 +04 23 45.9          18.4 V EJ077703
         K00AK5D  C2008 05 15.36719 17 01 55.23 +04 24 02.3          18.2 V EJ077703
         K00AK5D  C2008 05 15.38266 17 01 54.80 +04 24 35.5          18.1 V EJ077703
    
    Observer details:
    703 Catalina Sky Survey.  Observers R. E. Hill, S. M. Larson.  Measurers
        E. C. Beshore, A. Boattini, G. J. Garradd, A. R. Gibbs, A. D. Grauer,
        R. E. Hill, R. A. Kowalski, S. M. Larson, R. H. McNaught.  0.68-m Schmidt
        + CCD.
    
    First and last observations above in comparison with prediction:
    Residuals in seconds of arc (or two decimals in degrees), reference and Delta-T
    080514 703 2.11- 0.01+    080515 703 2.17- 0.00-    MPC 39582   +1.1 day
    
    Orbital elements:
    2000 AD205                                               Earth MOID = 0.1291 AU
    Epoch 2008 May 14.0 TT = JDT 2454600.5                  MPC
    M 319.69704              (2000.0)            P               Q
    n   0.44738109     Peri.  191.87256     +0.98145846     +0.18414335
    a   1.6931066      Node   157.30592     -0.16263615     +0.94693196
    e   0.5858543      Incl.    7.92624     -0.10143359     +0.26345985
    P   2.20           H   18.5           G   0.15           U   4
    Residuals in seconds of arc
    000108 699  0.8-  0.4+    000112 046  0.1-  0.2+    000126 658  0.9-  0.4-
    000108 699  0.2+  0.3+    000113 046  0.6+  0.5+    000126 658  0.1-  0.0
    000108 699  0.0   0.0     000113 046  0.6+  0.2-    000207 413  0.0   0.2-
    000109 704  0.5-  0.2-    000113 046  0.6+  1.0+    000207 413  0.4-  0.1-
    000109 704  1.1-  0.0     000113 046  0.7+  0.4+    000208 413  0.2-  0.4-
    000109 711 (2.1+  3.1+)   000114 557  0.7+  0.3+    000208 413  0.4-  0.3-
    000109 704  0.6+  0.2+    000114 557  0.4+  0.7+    000224 413  0.5-  0.2-
    000109 704  1.1+  1.5-    000114 557  0.4+  0.6+    000224 413  0.4-  0.1-
    000109 704  0.5+  1.0-    000114 046  0.3+  0.0     000228 693  0.4-  0.1-
    000109 651  0.4-  0.7-    000114 046  0.6+  1.3+    000228 693  0.4+  0.2+
    000109 651  0.6-  0.9-    000114 046  1.0-  0.1-    000228 693  0.4+  0.4+
    000109 651  0.8-  1.2-    000114 046  0.1+  0.8+    080514 703  0.2+  0.1+
    000111 422  0.6+  0.2-    000114 046  0.4-  0.4-    080514 703  0.0   0.7-
    000111 422  0.2+  0.3-    000115 693 (0.3-  2.5+)   080514 703  0.1+  0.3-
    000111 422  0.4+  0.5+    000115 693 (0.6-  2.9+)   080514 703  0.4+  0.3-
    000111 422  0.8+  0.4+    000115 422  1.2-  0.2+    080515 703  0.3-  0.6+
    000112 046  1.4-  0.1-    000115 422  0.5+  0.0     080515 703  0.3-  0.2+
    000112 046  0.1-  0.2+    000115 422  0.1+  0.4-    080515 703  0.2-  0.2+
    000112 046  0.1-  0.4-    000124 658  0.0   0.4+
    000112 046  0.2-  0.1+    000124 658  0.4+  0.7+
    
    Ephemeris:
    2000 AD205               a,e,i = 1.69, 0.59, 8                   q = 0.7012
    Date    TT    R. A. (2000) Decl.     Delta      r     Elong.  Phase     V
    2008 05 14    17 02.34   +03 36.3    0.429    1.391   147.2    23.2    18.5
    2008 05 24    16 56.73   +10 27.0    0.330    1.300   146.2    25.7    17.8
    2008 06 03    16 42.96   +20 36.5    0.246    1.206   137.1    34.9    17.3
    2008 06 13    16 11.95   +36 34.6    0.180    1.111   117.7    54.0    17.0
    2008 06 23    14 34.00   +60 17.3    0.142    1.016    85.7    86.3    17.3
    
    Gareth V. Williams           (C) Copyright 2008 MPC           M.P.E.C. 2008-J77
    

    Read MPEC 2008-J76 Read MPEC 2008-J78


    MPEC number:

    Enter an MPEC number in one of the following forms:

    • 1997-B01 (the full form)
    • J97B01 (the packed version of the full form)
    • B01 (the abbreviated form)